Weather observations for the past three days for
Ottawa Putnam County Airport
Imperial (Metric)
Date Time (edt) Wind (mph) Vis. (mi.) Weather Sky Cond. Temperature (ºF) Relative Humidity Wind Chill (°F) Heat Index (°F) Pressure Precipitation (in)
Air Dwpt 6 hour altimeter (in) sea level (mb) 1 hr 3 hr 6 hr
Max. Min.
16 07:15 W 18 G 25 10.00 Fair CLR 71.6 64.4 78% 30.61 0.0
16 06:55 NW 16 G 25 10.00 Fair CLR 71.6 64.4 78% 29.82 0.0
16 06:35 NW 18 G 28 10.00 Fair CLR 71.6 64.4 78% 29.8 0.0
16 06:15 NW 20 G 28 10.00 Fair CLR 71.6 64.4 78% 30.57 0.0
16 05:55 NW 22 G 33 10.00 Fair and Breezy CLR 73.4 62.6 69% 29.75 0.0
16 05:35 W 25 G 33 10.00 Fair and Breezy CLR 73.4 62.6 69% 29.73 0.0
16 05:15 W 22 G 30 10.00 Fair and Breezy CLR 73.4 62.6 69% 29.72 0.0
16 04:55 W 17 G 29 10.00 Fair CLR 71.6 62.6 73% 29.68 0.0
16 04:35 W 21 G 31 10.00 Fair and Breezy CLR 73.4 62.6 69% 29.71 0.0
16 04:15 W 28 G 36 10.00 Fair and Windy CLR 73.4 62.6 69% 29.69 0.0
16 03:55 SW 22 G 30 10.00 Partly Cloudy and Breezy SCT110 73.4 62.6 69% 29.71 0.0
16 03:35 SW 16 G 22 7.00 Fair CLR 73.4 62.6 69% 29.72 0.0
16 03:15 SW 15 G 23 10.00 Fair CLR 73.4 62.6 69% 29.73 0.0
16 02:55 SW 10 G 16 10.00 Fair CLR 75.2 64.4 69% 77 30.55 0.0
16 02:35 W 16 G 25 10.00 Fair CLR 77 64.4 65% 79 30.55 0.0
16 02:15 W 24 G 31 10.00 Partly Cloudy and Breezy SCT028 SCT055 SCT070 78.8 69.8 74% 81 30.57 0.0
16 01:55 SW 21 G 28 10.00 Mostly Cloudy and Breezy SCT026 SCT030 BKN070 78.8 71.6 79% 82 30.57 0.0
16 01:35 SW 15 G 23 10.00 Fair CLR 78.8 71.6 79% 82 29.8 0.0
16 01:15 SW 14 G 22 10.00 Fair CLR 78.8 71.6 79% 82 30.57 0.0
16 00:55 S 12 7.00 Fair CLR 78.8 69.8 74% 81 30.57 0.0
16 00:35 S 10 10.00 Partly Cloudy SCT038 78.8 69.8 74% 81 30.57 0.0
16 00:15 S 9 10.00 Partly Cloudy SCT033 SCT041 SCT049 77 69.8 79% 79 29.8 0.0
15 23:55 S 10 10.00 Mostly Cloudy SCT031 BKN037 BKN049 77 69.8 79% 79 29.81 0.0
15 23:35 S 7 10.00 Partly Cloudy SCT030 SCT035 SCT043 77 69.8 79% 79 29.81 0.0
15 23:15 S 7 10.00 Partly Cloudy SCT033 SCT043 SCT049 77 69.8 79% 79 29.81 0.0
15 22:55 S 6 10.00 Fair CLR 77 69.8 79% 79 29.81 0.0
15 22:35 S 7 7.00 Fair CLR 78.8 71.6 79% 82 29.81 0.0
15 22:15 S 7 10.00 Fair CLR 78.8 73.4 84% 82 29.81 0.0
15 21:55 S 6 10.00 Partly Cloudy SCT032 78.8 73.4 84% 82 29.82 0.0
15 21:35 S 3 10.00 Partly Cloudy SCT034 78.8 71.6 79% 82 29.82 0.0
15 21:15 SW 3 10.00 Fair CLR 78.8 71.6 79% 82 29.81 0.0
15 20:55 Calm 10.00 Fair CLR 80.6 71.6 74% 85 29.81 0.0
15 20:35 S 3 10.00 Fair CLR 82.4 73.4 74% 88 29.82 0.0
15 20:15 Calm 10.00 Fair CLR 84.2 73.4 70% 91 29.82 0.0
15 19:55 SW 5 7.00 Fair CLR 86 73.4 66% 93 29.82 0.0
15 19:35 SW 5 10.00 Fair CLR 86 73.4 66% 93 29.82 0.0
15 19:15 SW 7 7.00 Fair CLR 86 71.6 62% 92 30.61 0.0
15 18:55 SW 7 10.00 Partly Cloudy SCT033 86 71.6 62% 92 29.84 0.0
15 18:35 SW 8 10.00 Partly Cloudy SCT033 87.8 71.6 59% 94 29.84 0.0
15 18:15 SW 9 7.00 Fair CLR 86 71.6 62% 92 29.85 0.0
15 17:55 SW 9 7.00 Partly Cloudy SCT033 86 71.6 62% 92 29.86 0.0
15 17:35 SW 12 10.00 Partly Cloudy SCT035 87.8 71.6 59% 94 29.86 0.0
15 17:15 SW 14 G 17 10.00 Partly Cloudy SCT037 87.8 71.6 59% 94 29.86 0.0
15 16:55 W 8 10.00 Fair CLR 87.8 71.6 59% 94 29.86 0.0
15 16:35 SW 12 10.00 Partly Cloudy SCT034 SCT070 87.8 71.6 59% 94 30.65 0.0
15 16:15 SW 10 7.00 Partly Cloudy SCT034 86 71.6 62% 92 29.88 0.0
15 15:55 W 8 10.00 Fair CLR 87.8 71.6 59% 94 29.88 0.0
15 15:35 W 8 10.00 Partly Cloudy SCT034 86 71.6 62% 92 30.68 0.0
15 15:15 W 9 G 16 7.00 Fair CLR 86 71.6 62% 92 30.68 0.0
15 14:55 W 10 G 17 10.00 Fair CLR 86 69.8 59% 91 29.91 0.0
15 14:35 W 14 G 21 10.00 Mostly Cloudy BKN042 84.2 69.8 62% 88 29.92 0.0
15 14:15 W 8 G 17 7.00 Overcast OVC046 84.2 71.6 66% 90 30.71 0.0
15 13:55 SW 15 7.00 Mostly Cloudy SCT037 BKN046 82.4 69.8 66% 86 30.71 0.0
15 13:35 SW 10 10.00 Overcast BKN037 OVC044 80.6 69.8 70% 84 29.94 0.0
15 13:15 SW 15 G 18 10.00 Partly Cloudy SCT036 82.4 68 62% 85 29.94 0.0
15 12:55 W 14 G 17 10.00 Fair CLR 82.4 68 62% 85 29.94 0.0
15 12:35 W 12 10.00 Fair CLR 82.4 68 62% 85 29.92 0.0
15 12:15 SW 12 G 17 10.00 Partly Cloudy SCT060 82.4 68 62% 85 29.94 0.0
15 11:55 W 10 10.00 Partly Cloudy SCT060 82.4 68 62% 85 29.94 0.0
15 11:35 W 12 10.00 Partly Cloudy SCT060 80.6 68 66% 83 29.94 0.0
15 11:15 W 13 G 18 10.00 Fair CLR 78.8 68 70% 81 29.94 0.0
15 10:55 W 13 G 18 10.00 Fair CLR 78.8 68 70% 81 29.94 0.0
15 10:35 W 12 7.00 Fair CLR 77 66.2 69% 79 29.94 0.0
15 10:15 W 12 10.00 Fair CLR 77 66.2 69% 79 29.94 0.0
15 09:55 W 12 10.00 Fair CLR 77 64.4 65% 79 29.94 0.0
15 09:35 W 12 10.00 Fair CLR 77 64.4 65% 79 29.94 0.0
15 09:15 W 9 G 18 7.00 Fair CLR 77 64.4 65% 79 29.94 0.0
15 08:55 W 13 G 16 7.00 Fair CLR 77 66.2 69% 79 30.71 0.0
15 08:35 W 12 G 17 7.00 Fair CLR 77 68 74% 79 30.71 0.0
15 08:15 W 10 7.00 Fair CLR 75.2 66.2 74% 77 29.92 0.0
15 07:55 W 8 10.00 Fair CLR 71.6 66.2 83% 29.91 0.0
15 07:35 SW 10 10.00 Mostly Cloudy SCT048 SCT050 BKN120 73.4 66.2 78% 30.68 0.0
15 07:15 SW 9 10.00 Partly Cloudy SCT048 SCT055 SCT090 73.4 68 83% 30.68 0.0
15 06:55 S 8 10.00 Fair CLR 73.4 69.8 89% 30.68 0.0
15 06:35 SW 8 7.00 Fair CLR 73.4 69.8 89% 29.91 0.0
15 06:15 SW 7 7.00 Fair CLR 73.4 71.6 94% 29.92 0.0
15 05:55 SW 7 7.00 Partly Cloudy SCT017 SCT023 SCT031 75.2 71.6 89% 75 29.92 0.0
15 05:35 SW 7 G 18 7.00 Mostly Cloudy SCT017 BKN023 BKN033 75.2 71.6 89% 75 29.92 0.0
15 05:15 SW 9 10.00 Mostly Cloudy SCT021 SCT027 BKN037 75.2 71.6 89% 75 29.92 0.0
15 04:55 SW 10 7.00 Partly Cloudy SCT029 SCT037 75.2 71.6 89% 75 29.92 0.0
15 04:35 SW 8 7.00 Fair CLR 75.2 71.6 89% 75 30.68 0.0
15 04:15 SW 8 10.00 Partly Cloudy SCT120 75.2 71.6 89% 75 30.68 0.0
15 03:55 SW 9 10.00 Fair CLR 73.4 71.6 94% 30.68 0.0
15 03:35 SW 8 7.00 Fair CLR 73.4 71.6 94% 30.68 0.0
15 03:15 SW 9 10.00 Fair CLR 73.4 71.6 94% 29.91 0.0
15 02:55 SW 8 10.00 Fair CLR 73.4 71.6 94% 29.92 0.0
15 02:35 SW 7 7.00 Fair CLR 73.4 69.8 89% 29.92 0.0
15 02:15 S 6 7.00 Fair CLR 71.6 69.8 94% 30.71 0.0
15 01:55 S 5 10.00 Fair CLR 71.6 69.8 94% 29.94 0.0
15 01:35 S 5 10.00 Fair CLR 71.6 69.8 94% 30.73 0.0
15 01:15 SW 3 10.00 Fair CLR 71.6 68 88% 30.74 0.0
15 00:55 S 3 10.00 Fair CLR 71.6 68 88% 30.74 0.0
15 00:35 SW 6 10.00 Fair CLR 71.6 68 88% 29.97 0.0
15 00:15 SW 3 10.00 Fair CLR 69.8 68 94% 29.97 0.0
14 23:55 S 5 7.00 Fair CLR 69.8 68 94% 30.74 0.0
14 23:35 S 3 10.00 Fair CLR 69.8 68 94% 30.74 0.0
14 23:15 S 3 10.00 Fair CLR 71.6 68 88% 30.74 0.0
14 22:55 S 5 10.00 Fair CLR 69.8 68 94% 30.74 0.0
14 22:35 S 5 10.00 Fair CLR 69.8 68 94% 30.74 0.0
14 22:15 S 5 7.00 Fair CLR 69.8 68 94% 29.97 0.0
14 21:55 S 6 10.00 Fair CLR 69.8 68 94% 29.97 0.0
14 21:35 SW 5 10.00 Fair CLR 71.6 68 88% 29.97 0.0
14 21:15 SW 6 10.00 Fair CLR 71.6 68 88% 29.98 0.0
14 20:55 SW 6 10.00 Fair CLR 71.6 68 88% 29.98 0.0
14 20:35 SW 7 10.00 Fair CLR 73.4 68 83% 29.99 0.0
14 20:15 SW 8 7.00 Fair CLR 73.4 68 83% 29.99 0.0
14 19:55 SW 7 10.00 Fair CLR 73.4 68 83% 29.99 0.0
14 19:35 SW 6 10.00 Fair CLR 73.4 68 83% 29.99 0.0
14 19:15 SW 7 10.00 Fair CLR 73.4 68 83% 30 0.0
14 18:55 SW 9 10.00 Fair CLR 75.2 68 78% 76 30 0.0
14 18:35 SW 10 10.00 Fair CLR 73.4 68 83% 30 0.0
14 18:15 SW 7 7.00 Fair CLR 73.4 68 83% 30 0.0
14 17:55 W 7 10.00 Fair CLR 71.6 68 88% 30 0.0
14 17:35 SW 7 10.00 Fair CLR 71.6 68 88% 30 0.0
14 17:15 SW 7 10.00 Fair CLR 71.6 68 88% 30 0.0
14 16:55 SW 9 10.00 Fair CLR 71.6 68 88% 30 0.0
14 16:35 SW 13 G 16 10.00 Fair CLR 71.6 68 88% 30 0.0
14 16:15 SW 12 7.00 Partly Cloudy SCT033 SCT039 SCT049 69.8 68 94% 30.79 0.0
14 15:55 W 14 7.00 Overcast SCT036 BKN043 OVC050 71.6 68 88% 30.8 0.0
14 15:35 W 16 G 21 5.00 Overcast SCT036 BKN046 OVC055 71.6 69.8 94% 30.8 0.0
14 15:15 W 10 7.00 Mostly Cloudy SCT060 SCT075 BKN095 71.6 68 88% 30.8 0.0
14 14:55 W 22 G 28 10.00 Partly Cloudy and Breezy SCT043 SCT050 SCT070 75.2 69.8 83% 75 30.79 0.0
14 14:35 Calm 3.00 Overcast SCT016 BKN050 OVC070 78.8 71.6 79% 82 29.97 0.0
14 14:15 SW 6 7.00 Mostly Cloudy SCT034 SCT043 BKN055 82.4 71.6 70% 87 29.99 0.0
14 13:55 SW 14 G 18 10.00 Mostly Cloudy SCT031 SCT042 BKN065 86 71.6 62% 92 29.99 0.0
14 13:35 SW 15 G 21 7.00 Mostly Cloudy BKN065 86 73.4 66% 93 30 0.0
14 13:15 SW 15 10.00 Mostly Cloudy SCT024 SCT028 BKN070 86 73.4 66% 93 30.79 0.0
14 12:55 SW 10 7.00 Mostly Cloudy SCT020 SCT024 BKN070 82.4 73.4 74% 88 30.03 0.0
14 12:35 S 9 G 18 7.00 Partly Cloudy SCT020 SCT025 82.4 73.4 74% 88 30.82 0.0
14 12:15 SW 13 G 18 10.00 Fair CLR 82.4 73.4 74% 88 30.05 0.0
14 11:55 S 12 10.00 Fair CLR 80.6 71.6 74% 85 30.06 0.0
14 11:35 S 10 10.00 Fair CLR 78.8 71.6 79% 82 30.07 0.0
14 11:15 S 8 10.00 Mostly Cloudy BKN110 75.2 69.8 83% 75 30.07 0.0
14 10:55 S 8 10.00 Partly Cloudy SCT110 73.4 69.8 89% 30.86 0.0
14 10:35 S 7 7.00 Fair CLR 73.4 69.8 89% 30.86 0.0
14 10:15 Calm 7.00 Mostly Cloudy SCT013 SCT022 BKN039 71.6 68 88% 30.09 0.0
14 09:55 SE 8 2.00 Overcast BKN011 BKN037 OVC044 71.6 68 88% 30.09 0.0
14 09:35 NW 9 10.00 Overcast SCT044 BKN065 OVC090 73.4 68 83% 30.9 0.0
14 09:15 SW 6 10.00 Overcast BKN100 OVC120 73.4 69.8 89% 30.09 0.0
14 08:55 SW 6 7.00 Mostly Cloudy BKN100 BKN120 73.4 69.8 89% 30.1 0.0
14 08:35 SW 5 10.00 Mostly Cloudy BKN100 73.4 69.8 89% 30.1 0.0
14 08:15 Calm 7.00 Partly Cloudy SCT095 73.4 69.8 89% 30.09 0.0
14 07:55 S 6 7.00 Fair CLR 73.4 68 83% 30.86 0.0
14 07:35 S 5 7.00 Fair CLR 71.6 68 88% 30.86 0.0
14 07:15 SW 6 7.00 Fair CLR 71.6 68 88% 30.1 0.0
14 06:55 SW 6 7.00 Fair CLR 71.6 68 88% 30.09 0.0
14 06:35 SW 7 7.00 Fair CLR 71.6 68 88% 30.09 0.0
14 06:15 SW 7 7.00 Fair CLR 69.8 66.2 88% 30.1 0.0
14 05:55 SW 7 10.00 Fair CLR 69.8 66.2 88% 30.11 0.0
14 05:35 SW 6 7.00 Fair CLR 69.8 64.4 83% 30.1 0.0
14 05:15 SW 6 10.00 Partly Cloudy SCT110 69.8 64.4 83% 30.1 0.0
14 04:55 SW 3 10.00 Partly Cloudy SCT110 69.8 64.4 83% 30.1 0.0
14 04:35 S 5 10.00 Fair CLR 69.8 64.4 83% 30.09 0.0
14 04:15 S 5 7.00 Fair CLR 69.8 64.4 83% 30.09 0.0
14 03:55 S 5 10.00 Fair CLR 68 64.4 88% 30.09 0.0
14 03:35 S 3 7.00 Fair CLR 68 64.4 88% 30.09 0.0
14 03:15 S 3 10.00 Fair CLR 69.8 64.4 83% 30.1 0.0
14 02:55 Calm 10.00 Fair CLR 69.8 64.4 83% 30.1 0.0
14 02:35 Calm 10.00 Fair CLR 69.8 64.4 83% 30.11 0.0
14 02:15 Calm 10.00 Fair CLR 68 62.6 83% 30.11 0.0
14 01:55 S 5 10.00 Fair CLR 68 62.6 83% 30.11 0.0
14 01:35 S 3 10.00 Fair CLR 68 60.8 78% 30.9 0.0
14 01:15 S 3 10.00 Fair CLR 68 62.6 83% 30.9 0.0
14 00:55 S 3 10.00 Fair CLR 68 62.6 83% 30.13 0.0
14 00:35 SE 6 10.00 Fair CLR 68 60.8 78% 30.13 0.0
14 00:15 SE 5 10.00 Fair CLR 68 60.8 78% 30.14 0.0
13 23:55 Calm 7.00 Fair CLR 69.8 60.8 73% 30.14 0.0
13 23:35 Calm 10.00 Fair CLR 69.8 62.6 78% 30.14 0.0
13 23:15 Calm 10.00 Fair CLR 71.6 64.4 78% 30.13 0.0
13 22:55 Calm 10.00 Fair CLR 71.6 68 88% 30.13 0.0
13 22:35 SW 3 10.00 Fair CLR 71.6 62.6 73% 30.14 0.0
13 22:15 Calm 10.00 Fair CLR 71.6 64.4 78% 30.13 0.0
13 21:55 SW 3 10.00 Fair CLR 73.4 68 83% 30.13 0.0
13 21:35 SW 5 10.00 Fair CLR 77 68 74% 79 30.13 0.0
13 21:15 SW 3 10.00 Fair CLR 77 68 74% 79 30.13 0.0
13 20:55 SW 3 10.00 Fair CLR 78.8 68 70% 81 30.14 0.0
13 20:35 SW 5 10.00 Fair CLR 80.6 68 66% 83 30.14 0.0
13 20:15 SW 3 10.00 Fair CLR 80.6 68 66% 83 30.93 0.0
13 19:55 SW 6 10.00 Fair CLR 82.4 68 62% 85 30.93 0.0
13 19:35 SW 6 10.00 Fair CLR 84.2 68 58% 87 30.93 0.0
13 19:15 SW 8 7.00 Fair CLR 86 66.2 52% 88 30.14 0.0
13 18:55 SW 8 10.00 Fair CLR 86 64.4 49% 87 30.14 0.0
13 18:35 W 7 10.00 Fair CLR 86 66.2 52% 88 30.14 0.0
13 18:15 SW 7 10.00 Partly Cloudy SCT050 SCT060 87.8 66.2 49% 90 30.14 0.0
13 17:55 W 5 10.00 Fair CLR 87.8 66.2 49% 90 30.93 0.0
13 17:35 SW 6 10.00 Partly Cloudy SCT049 87.8 66.2 49% 90 30.93 0.0
13 17:15 W 5 10.00 Partly Cloudy SCT049 SCT060 SCT075 89.6 68 49% 93 30.16 0.0
13 16:55 SW 7 10.00 Mostly Cloudy SCT049 SCT060 BKN075 87.8 68 52% 91 30.16 0.0
13 16:35 Calm 10.00 Mostly Cloudy SCT049 BKN060 87.8 68 52% 91 30.17 0.0
13 16:15 SW 6 10.00 Partly Cloudy SCT049 SCT060 SCT090 87.8 66.2 49% 90 30.17 0.0
13 15:55 SW 5 7.00 Partly Cloudy SCT049 SCT090 87.8 64.4 46% 89 30.17 0.0
13 15:35 SW 3 10.00 Partly Cloudy SCT049 SCT065 87.8 64.4 46% 89 30.17 0.0
13 15:15 SW 8 10.00 Partly Cloudy SCT047 SCT060 SCT075 87.8 66.2 49% 90 30.17 0.0
13 14:55 S 7 10.00 Mostly Cloudy SCT047 BKN055 BKN075 89.6 64.4 43% 91 30.17 0.0
13 14:35 SW 7 7.00 Mostly Cloudy SCT045 SCT065 BKN070 89.6 64.4 43% 91 30.96 0.0
13 14:15 SW 6 10.00 Partly Cloudy SCT043 SCT065 SCT080 89.6 64.4 43% 91 30.96 0.0
13 13:55 Calm 10.00 Partly Cloudy SCT041 87.8 64.4 46% 89 30.19 0.0
13 13:35 Calm 10.00 Partly Cloudy SCT039 87.8 68 52% 91 30.19 0.0
13 13:15 SW 5 10.00 Mostly Cloudy BKN037 BKN050 86 64.4 49% 87 30.2 0.0
13 12:55 Calm 10.00 Partly Cloudy SCT037 SCT043 SCT050 87.8 64.4 46% 89 30.19 0.0
13 12:35 S 3 10.00 Partly Cloudy SCT055 87.8 64.4 46% 89 30.2 0.0
13 12:15 SW 3 10.00 Partly Cloudy SCT037 SCT055 87.8 64.4 46% 89 30.2 0.0
13 11:55 Calm 7.00 Fair CLR 87.8 66.2 49% 90 30.21 0.0
13 11:35 SE 6 10.00 Partly Cloudy SCT027 SCT048 86 68 55% 89 30.21 0.0
13 11:15 S 5 10.00 Partly Cloudy SCT027 86 68 55% 89 30.21 0.0
13 10:55 SE 5 10.00 Fair CLR 84.2 68 58% 87 30.2 0.0
13 10:35 SE 3 10.00 Fair CLR 84.2 68 58% 87 30.2 0.0
13 10:15 SE 3 10.00 Fair CLR 82.4 69.8 66% 86 30.21 0.0
13 09:55 E 3 10.00 Fair CLR 80.6 69.8 70% 84 30.21 0.0
13 09:35 Calm 10.00 Fair CLR 80.6 69.8 70% 84 30.22 0.0
13 09:15 Calm 10.00 Fair CLR 78.8 69.8 74% 81 30.22 0.0
13 08:55 Calm 10.00 Fair CLR 77 68 74% 79 30.22 0.0
13 08:35 SE 3 10.00 Fair CLR 77 69.8 79% 79 30.22 0.0
13 08:15 Calm 7.00 Fair CLR 73.4 69.8 89% 30.21 0.0
13 07:55 Calm 7.00 Fair CLR 71.6 69.8 94% 30.21 0.0
Date Time (edt) Wind (mph) Vis. (mi.) Weather Sky Cond. Air Dwpt Max. Min. Relative Humidity Wind Chill (°F) Heat Index (°F) altimeter (in) sea level (mb) 1 hr 3 hr 6 hr
6 hour
Temperature (ºF) Pressure Precipitation (in)